Location: Bletchingley
(51.2333°N, 0.1000°W)
Time: 13:55:32
(UTC+00:00)

Cosmos 1782 Rocket - Pass Details

Date: 18 September 2020
Orbit: 607 x 632 km, 82.5° (Epoch: 25 October)

Event Time Altitude Azimuth Distance (km) Brightness Sun altitude
Rises 18:43:08 0° 177° (S) 2,885 6.9 -6.5°
Reaches altitude 10° 18:45:22 10° 174° (S) 1,988 6.0 -6.8°
Maximum altitude 18:49:41 58° 95° (E) 733 3.6 -7.5°
Drops below altitude 10° 18:54:05 10° 17° (NNE) 2,019 6.2 -8.1°
Sets 18:56:21 0° 14° (NNE) 2,934 7.0 -8.5°
